{"data":{"norad_id":57732,"intl_designator":"2023-131A","name":"STARLINK-30375","alt_names":[],"object_type":"PAYLOAD","status":"ACTIVE","operator":null,"country":"US","launch_date":"2023-09-01","launch_site_code":"AFETR","launch_vehicle":null,"mission":null,"orbit_class":"UNKNOWN","rcs_meters":null,"size_class":null,"mass_kg":null,"dimensions":null,"purposes":["comms"],"wikipedia_slug":null,"has_3d_model":false,"image_url":null,"decayed_at":null,"tle_current":{"epoch":"2026-09-20T00:52:16.523904Z","epoch_age_seconds":171170,"freshness":"FRESH","line1":"1 57732U 23131A   26263.03630236 -.00010175  00000+0 -36037-3 0  9993","line2":"2 57732  43.0010 140.0436 0001679 258.3164 101.7499 15.27610979169828","mean_motion":15.27610979,"eccentricity":0.0001679,"inclination_deg":43.001,"raan_deg":140.0436,"arg_perigee_deg":258.3164,"mean_anomaly_deg":101.7499,"bstar":-0.00036037,"rev_number":16982,"period_min":94.264837042651,"perigee_km":481.80435776565,"apogee_km":484.10831290766,"semimajor_km":6861.0933353367,"source":"CELESTRAK","updated_at":"2026-09-21T09:00:33.678048Z"}}}